Flag for Brazil Weather past 2 weeks in Recife, Pernambuco, Brazil

Now
81 °F

Passing clouds.


Feels Like: 85 °F
Forecast: N/A
Wind: 7 mph from Southeast

Location: Recife Aeroporto

Current Time: Dec 25, 2014 at 8:41:27 PM

Latest Report: Dec 25, 2014 at 8:00 PM


Visibility: N/A

Pressure: 29.98 "Hg

Humidity: 74%

Dew point: 72 °F

Location of RecifeLocation

Historic Weather in Recife — Graph

°F

Recife temperature yesterday

Maximum temperature yesterday: 86 °F (at 10:00 AM)
Minimum temperature yesterday: 75 °F (at 1:00 AM)
Average temperature yesterday: 82 °F

Past Weeks' High & Low Weather Summary

 TemperatureHumidityPressure
High86 °F (Dec 11, 1:00 PM)94% (Dec 14, 11:00 PM)30.01 "Hg (Dec 14, 11:00 PM)
Low75 °F (Dec 14, 5:00 AM)59% (Dec 17, 10:00 AM)29.86 "Hg (Dec 12, 3:00 AM)
Average81 °F75%29.92 "Hg
* Reported Dec 10 7:00 PM — Dec 25 7:00 PM, Recife, Weather by CustomWeather, © 2014

Note: Actual official high and low records may vary slightly from our data, if they occured in-between our weather recording intervals... More about our weather records

Advertising

Recife weather history for previous 24 hours

 ConditionsComfort  
Time TempWeatherWind HumidityBarometerVisibility
7:00 PM
Dec 25
81 °FPartly cloudy.8 mph70%29.95 "HgN/A
6:00 PM81 °FBroken clouds.7 mph70%29.95 "HgN/A
5:00 PM81 °FBroken clouds.9 mph74%29.95 "HgN/A
4:00 PM81 °FScattered showers. Partly sunny.8 mph74%29.95 "HgN/A
3:00 PM82 °FBroken clouds.9 mph70%29.95 "HgN/A
2:00 PM82 °FBroken clouds.10 mph70%29.95 "HgN/A
1:00 PM84 °FBroken clouds.10 mph62%29.98 "HgN/A
12:00 PM82 °FBroken clouds.10 mph70%29.98 "HgN/A
11:00 AM84 °FBroken clouds.12 mph66%30.01 "HgN/A
10:00 AM84 °FScattered clouds.9 mph66%30.01 "HgN/A
9:00 AM84 °FBroken clouds.10 mph66%30.01 "HgN/A
8:00 AM82 °FScattered clouds.9 mph74%30.01 "HgN/A
7:00 AM81 °FScattered clouds.10 mph74%29.98 "HgN/A
6:00 AM81 °FPassing clouds.8 mph74%29.98 "HgN/A
5:00 AM79 °FPassing clouds.8 mph79%29.95 "HgN/A
4:00 AM79 °FPassing clouds.10 mph74%29.95 "HgN/A
3:00 AM79 °FPassing clouds.12 mph79%29.92 "HgN/A
2:00 AM79 °FPassing clouds.9 mph79%29.92 "HgN/A
1:00 AM79 °FPassing clouds.9 mph79%29.95 "HgN/A
12:00 AM79 °FPassing clouds.9 mph79%29.95 "HgN/A
11:00 PM
Dec 24
81 °FPassing clouds.8 mph79%29.98 "HgN/A
10:00 PM81 °FPassing clouds.8 mph79%29.98 "HgN/A
9:00 PM81 °FPassing clouds.8 mph74%29.98 "HgN/A
8:00 PM81 °FPassing clouds.9 mph74%29.95 "HgN/A
Weather by CustomWeather, © 2014

See weather overviewHow to use our weather pages